• In Hungary
  • List of Countries
  • For 7 days
  • Water Temperature
  • Satellite Maps
  • Weather Map
  • News
  • Weather Widgets
  • user-avatar
    Login

    Hourly Weather Toledo

    Today, 21 October, Saturday

    Time Temperature Precipitation Wind Pressure Humidity
    00:00 +15°C° 0 mm 4 mps 749 mmHg 68%
    01:00 +15°C° 0 mm 4 mps 750 mmHg 71%
    02:00 +16°C° 0 mm 3 mps 750 mmHg 74%
    03:00 +14°C° 0 mm 3 mps 750 mmHg 77%
    04:00 +14°C° 0 mm 3 mps 750 mmHg 78%
    05:00 +14°C° 0 mm 3 mps 750 mmHg 79%
    06:00 +14°C° 0 mm 3 mps 750 mmHg 80%
    07:00 +16°C° 0 mm 3 mps 750 mmHg 72%
    08:00 +18°C° 0 mm 4 mps 750 mmHg 65%
    09:00 +20°C° 0 mm 4 mps 751 mmHg 57%
    10:00 +21°C° 0 mm 4 mps 750 mmHg 52%
    11:00 +23°C° 0 mm 4 mps 750 mmHg 46%
    12:00 +25°C° 0 mm 4 mps 750 mmHg 41%
    13:00 +25°C° 0 mm 4 mps 750 mmHg 41%
    14:00 +26°C° 0 mm 4 mps 750 mmHg 41%
    15:00 +26°C° 0 mm 4 mps 749 mmHg 41%
    16:00 +23°C° 0 mm 4 mps 749 mmHg 46%
    17:00 +21°C° 0 mm 4 mps 749 mmHg 51%
    18:00 +19°C° 0 mm 4 mps 749 mmHg 55%
    19:00 +19°C° 0 mm 4 mps 749 mmHg 57%
    20:00 +19°C° 0 mm 4 mps 750 mmHg 58%
    21:00 +18°C° 0 mm 4 mps 750 mmHg 60%
    22:00 +17°C° 0 mm 4 mps 749 mmHg 62%
    23:00 +17°C° 0 mm 4 mps 749 mmHg 64%

    Tomorrow, 22 October, Sunday

    Time Temperature Precipitation Wind Pressure Humidity
    00:00 +15°C° 0 mm 4 mps 749 mmHg 67%
    01:00 +15°C° 0 mm 4 mps 749 mmHg 67%
    02:00 +15°C° 0 mm 4 mps 749 mmHg 68%
    03:00 +14°C° 0 mm 4 mps 749 mmHg 68%
    04:00 +14°C° 0 mm 4 mps 749 mmHg 68%
    05:00 +14°C° 0 mm 4 mps 749 mmHg 68%
    06:00 +14°C° 0 mm 5 mps 749 mmHg 68%
    07:00 +16°C° 0 mm 5 mps 749 mmHg 61%
    08:00 +19°C° 0 mm 6 mps 749 mmHg 55%
    09:00 +21°C° 0 mm 7 mps 749 mmHg 48%
    10:00 +22°C° 0 mm 7 mps 749 mmHg 45%
    11:00 +24°C° 0 mm 7 mps 748 mmHg 41%
    12:00 +26°C° 0 mm 7 mps 748 mmHg 37%
    13:00 +26°C° 0 mm 7 mps 748 mmHg 39%
    14:00 +26°C° 0 mm 7 mps 747 mmHg 41%
    15:00 +26°C° 0 mm 7 mps 747 mmHg 44%
    16:00 +23°C° 0 mm 6 mps 747 mmHg 48%
    17:00 +22°C° 0 mm 6 mps 747 mmHg 51%
    18:00 +21°C° 0 mm 5 mps 747 mmHg 55%
    19:00 +21°C° 0 mm 5 mps 747 mmHg 55%
    20:00 +20°C° 0 mm 5 mps 747 mmHg 55%
    21:00 +20°C° 0 mm 5 mps 747 mmHg 55%
    22:00 +20°C° 0 mm 5 mps 746 mmHg 56%
    23:00 +20°C° 0 mm 5 mps 746 mmHg 57%

    Day after tomorrow, 23 October, Monday

    Time Temperature Precipitation Wind Pressure Humidity
    00:00 +19°C° 0 mm 5 mps 746 mmHg 58%
    01:00 +19°C° 0 mm 4 mps 746 mmHg 60%
    02:00 +19°C° 0 mm 4 mps 745 mmHg 62%
    03:00 +18°C° 0 mm 4 mps 745 mmHg 64%
    04:00 +18°C° 0 mm 4 mps 745 mmHg 66%
    05:00 +18°C° 0 mm 4 mps 745 mmHg 68%
    06:00 +17°C° 0 mm 5 mps 744 mmHg 70%
    07:00 +19°C° 0.1 mm 5 mps 744 mmHg 70%
    08:00 +20°C° 0.1 mm 5 mps 744 mmHg 69%
    09:00 +20°C° 0.1 mm 5 mps 744 mmHg 69%
    10:00 +20°C° 0.3 mm 4 mps 743 mmHg 70%
    11:00 +20°C° 0.3 mm 4 mps 743 mmHg 72%
    12:00 +20°C° 0.3 mm 4 mps 742 mmHg 73%
    13:00 +19°C° 2.8 mm 3 mps 741 mmHg 79%
    14:00 +19°C° 2.8 mm 3 mps 740 mmHg 86%
    15:00 +18°C° 2.8 mm 2 mps 739 mmHg 92%
    16:00 +17°C° 5.8 mm 3 mps 739 mmHg 92%
    17:00 +15°C° 5.8 mm 4 mps 738 mmHg 92%
    18:00 +15°C° 5.8 mm 4 mps 738 mmHg 91%
    19:00 +14°C° 2.7 mm 5 mps 737 mmHg 86%
    20:00 +14°C° 2.7 mm 6 mps 736 mmHg 82%
    21:00 +14°C° 2.7 mm 6 mps 736 mmHg 77%
    22:00 +13°C° 0.1 mm 6 mps 735 mmHg 73%
    23:00 +12°C° 0.1 mm 5 mps 735 mmHg 69%

    24 October, Tuesday

    Time Temperature Precipitation Wind Pressure Humidity
    00:00 +12°C° 0.1 mm 5 mps 734 mmHg 65%
    01:00 +10°C° 0 mm 5 mps 734 mmHg 69%
    02:00 +10°C° 0 mm 5 mps 734 mmHg 73%
    03:00 +10°C° 0 mm 5 mps 734 mmHg 77%
    04:00 +9°C° 0 mm 5 mps 734 mmHg 77%
    05:00 +9°C° 0 mm 5 mps 734 mmHg 77%
    06:00 +9°C° 0 mm 5 mps 734 mmHg 78%
    07:00 +10°C° 0.1 mm 5 mps 735 mmHg 76%
    08:00 +10°C° 0.1 mm 6 mps 735 mmHg 75%
    09:00 +10°C° 0.1 mm 6 mps 735 mmHg 73%
    10:00 +11°C° 0.1 mm 7 mps 735 mmHg 66%
    11:00 +12°C° 0.1 mm 7 mps 734 mmHg 59%
    12:00 +14°C° 0.1 mm 7 mps 734 mmHg 52%
    13:00 +12°C° 0 mm 8 mps 734 mmHg 56%
    14:00 +11°C° 0 mm 8 mps 734 mmHg 59%
    15:00 +10°C° 0 mm 9 mps 734 mmHg 62%
    16:00 +9°C° 0 mm 8 mps 735 mmHg 67%
    17:00 +8°C° 0 mm 7 mps 735 mmHg 71%
    18:00 +8°C° 0 mm 7 mps 736 mmHg 75%
    19:00 +8°C° 0.1 mm 7 mps 736 mmHg 76%
    20:00 +7°C° 0.1 mm 6 mps 736 mmHg 77%
    21:00 +7°C° 0.1 mm 6 mps 736 mmHg 78%
    22:00 +7°C° 0 mm 6 mps 736 mmHg 79%
    23:00 +7°C° 0 mm 6 mps 736 mmHg 79%

    25 October, Wednesday

    Time Temperature Precipitation Wind Pressure Humidity
    00:00 +5°C° 0 mm 6 mps 736 mmHg 80%
    01:00 +5°C° 0 mm 6 mps 736 mmHg 80%
    02:00 +5°C° 0 mm 6 mps 736 mmHg 80%
    03:00 +5°C° 0 mm 6 mps 736 mmHg 80%
    04:00 +5°C° 0.1 mm 6 mps 736 mmHg 80%
    05:00 +5°C° 0.1 mm 6 mps 736 mmHg 80%
    06:00 +5°C° 0.1 mm 6 mps 736 mmHg 79%
    07:00 +5°C° 0.1 mm 7 mps 736 mmHg 75%
    08:00 +5°C° 0.1 mm 7 mps 736 mmHg 71%
    09:00 +5°C° 0.1 mm 7 mps 736 mmHg 66%
    10:00 +5°C° 0 mm 7 mps 736 mmHg 62%
    11:00 +5°C° 0 mm 8 mps 735 mmHg 58%
    12:00 +6°C° 0 mm 8 mps 735 mmHg 54%
    13:00 +5°C° 0.4 mm 7 mps 735 mmHg 59%
    14:00 +5°C° 0.4 mm 6 mps 734 mmHg 63%
    15:00 +4°C° 0.4 mm 6 mps 734 mmHg 67%
    16:00 +5°C° 0.5 mm 5 mps 734 mmHg 71%
    17:00 +5°C° 0.5 mm 5 mps 734 mmHg 76%
    18:00 +5°C° 0.5 mm 4 mps 735 mmHg 80%
    19:00 +5°C° 0 mm 4 mps 735 mmHg 82%
    20:00 +5°C° 0 mm 3 mps 735 mmHg 84%
    21:00 +5°C° 0 mm 3 mps 735 mmHg 86%
    22:00 +4°C° 0 mm 3 mps 735 mmHg 88%
    23:00 +5°C° 0 mm 2 mps 735 mmHg 91%

    26 October, Thursday

    Time Temperature Precipitation Wind Pressure Humidity
    00:00 +5°C° 0 mm 2 mps 735 mmHg 93%
    01:00 +5°C° 0 mm 2 mps 736 mmHg 93%
    02:00 +4°C° 0 mm 2 mps 737 mmHg 93%
    03:00 +4°C° 0 mm 2 mps 737 mmHg 94%
    04:00 +4°C° 0 mm 2 mps 738 mmHg 93%
    05:00 +4°C° 0 mm 2 mps 738 mmHg 93%
    06:00 +4°C° 0 mm 2 mps 739 mmHg 92%
    07:00 +5°C° 0 mm 2 mps 740 mmHg 87%
    08:00 +6°C° 0 mm 2 mps 740 mmHg 81%
    09:00 +8°C° 0 mm 2 mps 741 mmHg 75%
    10:00 +9°C° 0 mm 3 mps 741 mmHg 70%
    11:00 +10°C° 0 mm 3 mps 741 mmHg 64%
    12:00 +12°C° 0 mm 3 mps 741 mmHg 59%
    13:00 +12°C° 0 mm 3 mps 741 mmHg 60%
    14:00 +12°C° 0 mm 3 mps 741 mmHg 60%
    15:00 +13°C° 0 mm 2 mps 741 mmHg 61%
    16:00 +12°C° 0 mm 2 mps 742 mmHg 65%
    17:00 +10°C° 0 mm 2 mps 742 mmHg 68%
    18:00 +9°C° 0 mm 2 mps 742 mmHg 71%
    19:00 +9°C° 0 mm 3 mps 742 mmHg 71%
    20:00 +9°C° 0 mm 3 mps 741 mmHg 71%
    21:00 +8°C° 0 mm 4 mps 741 mmHg 71%
    22:00 +8°C° 0 mm 5 mps 740 mmHg 71%
    23:00 +8°C° 0 mm 5 mps 740 mmHg 71%
    Show more